Погода в Ферзиково

Россия / Калужская область     54°31′16″N   36°45′50″E
темп.,
°C
ветер,
м/с
пор.,
м/с
влажн.,
%
обл.,
%
осадки,
мм/ч
давл.,
гПа
погр.,
м
5 августа, чт
чт500:00+14св11745 0.0 101711
03:00+14юв117621 0.0 101711
06:00+14юв228074 0.0 101725
09:00+20ююв346088 0.0 1017471
12:00+21ююз3558100 0.3 10161047
15:00+16всв238999 1.9 101577
18:00+21юв1469100 0.0 1013529
21:00+17ююв3377100 0.1 101336
6 августа, пт
пт600:00+15юв3585100 0.2 101291
03:00+16ю249448 1.1 101182
06:00+16ю3596100 0.4 1011123
09:00+20ю468394 1.0 1011416
12:00+18вюв2292100 1.1 101146
15:00+24вюв455566 1.1 1010765
18:00+24всв4661100 0.0 1008452
21:00+20в613726 0.0 1008327
7 августа, сб
сб700:00+16в489497 0.9 1007131
03:00+18ююв41389100 0.9 1007248
06:00+18ююв359382 0.8 1007101
09:00+23ю61275100 0.9 1008666
12:00+26ю61056100 0.1 10081230
15:00+28ююв7950100 0.1 10081716
18:00+24ю61062100 0.1 1008531
21:00+19ююз3489100 0.8 101062
8 августа, вс
вс800:00+18з349398 0.5 101189
03:00+16з4794100 0.6 1012163
06:00+15зсз3689100 0.0 1013145
09:00+18з3568100 0.0 1014448
12:00+22з3456100 0.0 10151142
15:00+24з3448100 0.0 10151501
18:00+24зюз235272 0.0 10161363
21:00+18зсз22760 0.0 101722
9 августа, пн
пн900:00+16ссз11830 0.0 101811
03:00+15ссз00858 0.0 101911
06:00+15ссз008414 0.0 101911
09:00+22вюв116014 0.0 1019387
12:00+26юв11455 0.0 10191425
15:00+27вюв21391 0.0 10181780
18:00+26юв22460 0.0 1017440
21:00+20юв115821 0.0 101811